Flag for Canada Weather past 2 weeks in Belleville, Ontario, Canada

54 °F

Mostly cloudy.

Feels Like: 50 °F
Forecast: N/A
Wind: 10 mph from South

Location: Trenton

Current Time: Nov 26, 2015 at 4:50:56 PM

Latest Report: Nov 26, 2015 at 3:00 PM

Visibility: 15 mi

Pressure: 30.42 "Hg

Humidity: 58%

Dew point: 39 °F

Location of BellevilleLocation

Historic Weather in Belleville — Graph


Belleville temperature yesterday

Maximum temperature yesterday: 46 °F (at 2:00 PM)
Minimum temperature yesterday: 27 °F (at 2:00 AM)
Average temperature yesterday: 38 °F

Past Weeks' High & Low Weather Summary

High61 °F (Nov 19, 3:00 PM)100% (Nov 11, 7:48 PM)30.67 "Hg (Nov 11, 7:48 PM)
Low21 °F (Nov 23, 5:00 AM)39% (Nov 20, 11:00 AM)29.31 "Hg (Nov 12, 11:00 PM)
Average42 °F72%30.09 "Hg
* Reported Nov 11 3:00 PM — Nov 26 3:00 PM, Belleville, Weather by CustomWeather, © 2015

Note: Actual official high and low records may vary slightly from our data, if they occured in-between our weather recording intervals... More about our weather records


Belleville weather history for previous 24 hours

Time TempWeatherWind HumidityBarometerVisibility
3:00 PM
Thu, Nov 26
54 °FMostly cloudy.10 mph58%30.42 "Hg15 mi
2:00 PM54 °FMostly cloudy.10 mph58%30.45 "Hg15 mi
1:00 PM52 °FOvercast.7 mph58%30.47 "Hg15 mi
12:00 PM52 °FOvercast.12 mph58%30.50 "Hg15 mi
11:00 AM50 °FSprinkles. More clouds than sun.8 mph62%30.54 "Hg15 mi
10:00 AM48 °FSprinkles. Mostly cloudy.9 mph62%30.55 "Hg15 mi
9:00 AM46 °FBroken clouds.7 mph71%30.55 "Hg15 mi
8:00 AM45 °FPartly sunny.3 mph76%30.55 "Hg15 mi
7:00 AM45 °FMostly cloudy.5 mph71%30.54 "Hg15 mi
6:00 AM45 °FPartly cloudy.5 mph71%30.54 "Hg15 mi
5:00 AM43 °FPassing clouds.5 mph71%30.53 "Hg15 mi
4:00 AM45 °FPassing clouds.7 mph71%30.53 "Hg15 mi
3:00 AM45 °FPassing clouds.7 mph71%30.53 "Hg15 mi
2:00 AM45 °FPassing clouds.8 mph66%30.53 "Hg15 mi
1:00 AM43 °FPassing clouds.6 mph71%30.53 "Hg15 mi
12:00 AM45 °FPassing clouds.9 mph61%30.53 "Hg15 mi
11:00 PM
Wed, Nov 25
45 °FPassing clouds.10 mph61%30.53 "Hg15 mi
10:00 PM46 °FPartly cloudy.13 mph57%30.53 "Hg15 mi
9:00 PM46 °FMostly cloudy.12 mph57%30.53 "Hg15 mi
8:00 PM46 °FMostly cloudy.8 mph62%30.54 "Hg15 mi
7:00 PM45 °FMostly cloudy.8 mph61%30.55 "Hg15 mi
6:00 PM43 °FPassing clouds.5 mph66%30.55 "Hg12 mi
5:00 PM43 °FPassing clouds.6 mph61%30.56 "Hg12 mi
4:00 PM45 °FPassing clouds.9 mph57%30.58 "Hg15 mi
Weather by CustomWeather, © 2015

See weather overviewHow to use our weather pages